QPF
0.00 0.00 0.00 0.00 0.00 0.00 0.00 0.00 0.00 0.00 0.00 0.00 0.00 0.00 0.00 0.00 0.00 0.00 0.00 0.00 0.00 0.00 0.00 0.01 0.01 0.00 0.00 0.01 0.01 0.01 0.01 0.00 0.00 0.00 0.00 0.00 0.00 0.00 0.01 0.02 0.06 0.04 0.01
0.00 0.00 0.00 0.00 0.00 0.00 0.00 0.00 0.00 0.00 0.00 0.00 0.00 0.00 0.00 0.00 0.00 0.00 0.00 0.00 0.00 0.00 0.01 0.01 0.01 0.00 0.00 0.00 0.00 0.00 0.00 0.00 0.00 0.00 0.00 0.00 0.00 0.00 0.01 0.04 0.09 0.04 0.01
0.00 0.00 0.00 0.00 0.00 0.00 0.00 0.00 0.00 0.00 0.00 0.00 0.00 0.00 0.00 0.00 0.00 0.00 0.00 0.00 0.00 0.00 0.01 0.01 0.01 0.00 0.00 0.00 0.00 0.00 0.00 0.00 0.00 0.01 0.04 0.04 0.00 0.00 0.01 0.05 0.07 0.02 0.01
0.00 0.00 0.00 0.00 0.00 0.00 0.00 0.00 0.00 0.00 0.00 0.00 0.00 0.00 0.00 0.00 0.00 0.00 0.00 0.00 0.00 0.00 0.00 0.00 0.00 0.00 0.00 0.00 0.00 0.00 0.00 0.00 0.00 0.02 0.14 0.08 0.01 0.00 0.01 0.02 0.02 0.02 0.01
0.00 0.00 0.00 0.00 0.00 0.00 0.00 0.00 0.00 0.00 0.00 0.00 0.00 0.00 0.00 0.00 0.00 0.00 0.00 0.00 0.00 0.00 0.00 0.00 0.00 0.00 0.00 0.00 0.00 0.00 0.00 0.00 0.00 0.03 0.07 0.05 0.04 0.01 0.00 0.00 0.01 0.01 0.03
0.00 0.00 0.00 0.00 0.00 0.00 0.00 0.00 0.00 0.00 0.00 0.00 0.00 0.00 0.00 0.00 0.00 0.00 0.00 0.00 0.00 0.00 0.00 0.00 0.00 0.00 0.00 0.00 0.00 0.00 0.00 0.00 0.00 0.02 0.02 0.02 0.02 0.00 0.00 0.00 0.00 0.01 0.02
0.00 0.00 0.00 0.00 0.00 0.00 0.00 0.00 0.00 0.00 0.00 0.00 0.00 0.00 0.00 0.00 0.00 0.00 0.00 0.00 0.00 0.00 0.00 0.00 0.00 0.00 0.00 0.00 0.00 0.00 0.00 0.00 0.01 0.02 0.01 0.02 0.02 0.00 0.00 0.00 0.00 0.01 0.01
0.00 0.00 0.00 0.00 0.00 0.00 0.00 0.00 0.00 0.00 0.00 0.00 0.00 0.00 0.00 0.00 0.00 0.00 0.00 0.00 0.00 0.00 0.00 0.00 0.00 0.00 0.00 0.00 0.00 0.00 0.00 0.00 0.00 0.01 0.00 0.02 0.01 0.00 0.00 0.01 0.01 0.01 0.01
0.00 0.00 0.00 0.00 0.00 0.00 0.00 0.00 0.00 0.00 0.00 0.00 0.00 0.00 0.00 0.00 0.00 0.00 0.00 0.00 0.00 0.00 0.00 0.00 0.00 0.00 0.00 0.00 0.00 0.00 0.00 0.00 0.00 0.00 0.00 0.01 0.00 0.00 0.01 0.02 0.02 0.02 0.01
0.00 0.00 0.00 0.00 0.00 0.00 0.00 0.00 0.00 0.00 0.00 0.00 0.00 0.00 0.00 0.00 0.00 0.00 0.00 0.00 0.00 0.00 0.00 0.00 0.00 0.00 0.00 0.00 0.00 0.00 0.00 0.00 0.00 0.00 0.00 0.00 0.00 0.00 0.00 0.01 0.02 0.03 0.02
0.00 0.00 0.00 0.00 0.00 0.00 0.00 0.00 0.00 0.00 0.00 0.00 0.00 0.00 0.00 0.00 0.00 0.01 0.01 0.01 0.01 0.01 0.00 0.01 0.01 0.01 0.01 0.01 0.01 0.01 0.01 0.00 0.00 0.00 0.00 0.00 0.00 0.00 0.00 0.01 0.02 0.03 0.03
0.00 0.00 0.00 0.00 0.00 0.00 0.00 0.01 0.01 0.01 0.01 0.00 0.01 0.01 0.01 0.01 0.00 0.00 0.01 0.02 0.02 0.01 0.01 0.01 0.02 0.02 0.01 0.01 0.08 0.09 0.02 0.01 0.00 0.00 0.00 0.01 0.01 0.01 0.00 0.00 0.01 0.02 0.03
0.00 0.00 0.00 0.00 0.00 0.00 0.00 0.01 0.01 0.01 0.03 0.02 0.02 0.03 0.04 0.03 0.02 0.01 0.02 0.04 0.03 0.03 0.02 0.03 0.03 0.03 0.04 0.07 0.17 0.18 0.06 0.06 0.02 0.00 0.01 0.01 0.01 0.01 0.01 0.00 0.00 0.01 0.02
0.00 0.00 0.00 0.00 0.00 0.01 0.01 0.02 0.01 0.02 0.03 0.04 0.07 0.08 0.08 0.08 0.06 0.05 0.05 0.05 0.07 0.07 0.07 0.06 0.09 0.09 0.11 0.13 0.17 0.15 0.09 0.07 0.03 0.02 0.06 0.09 0.07 0.04 0.02 0.01 0.01 0.01 0.01
0.01 0.01 0.01 0.01 0.03 0.05 0.06 0.06 0.03 0.03 0.03 0.03 0.07 0.08 0.10 0.12 0.10 0.10 0.10 0.08 0.07 0.08 0.11 0.13 0.11 0.13 0.15 0.15 0.15 0.16 0.13 0.08 0.06 0.07 0.14 0.20 0.16 0.09 0.04 0.03 0.01 0.01 0.02
0.04 0.05 0.05 0.05 0.08 0.11 0.11 0.11 0.08 0.04 0.04 0.03 0.04 0.06 0.08 0.11 0.14 0.15 0.14 0.13 0.09 0.08 0.10 0.13 0.15 0.21 0.19 0.17 0.13 0.13 0.14 0.14 0.09 0.08 0.13 0.23 0.20 0.11 0.06 0.04 0.03 0.03 0.03
0.06 0.09 0.08 0.08 0.10 0.13 0.13 0.13 0.10 0.05 0.04 0.04 0.07 0.09 0.13 0.13 0.15 0.15 0.15 0.15 0.14 0.14 0.16 0.16 0.16 0.19 0.17 0.15 0.13 0.13 0.13 0.13 0.10 0.11 0.12 0.20 0.20 0.10 0.06 0.05 0.04 0.04 0.04
0.03 0.04 0.04 0.04 0.08 0.12 0.15 0.14 0.12 0.08 0.06 0.06 0.06 0.08 0.10 0.12 0.15 0.17 0.17 0.18 0.20 0.20 0.19 0.18 0.17 0.17 0.15 0.15 0.14 0.11 0.13 0.13 0.10 0.11 0.08 0.11 0.13 0.09 0.12 0.07 0.05 0.04 0.04
0.01 0.02 0.03 0.03 0.04 0.07 0.10 0.10 0.10 0.09 0.08 0.07 0.07 0.09 0.11 0.13 0.14 0.15 0.18 0.21 0.22 0.23 0.21 0.16 0.18 0.20 0.18 0.17 0.13 0.11 0.09 0.09 0.09 0.07 0.08 0.06 0.07 0.07 0.09 0.08 0.05 0.04 0.04
0.01 0.01 0.02 0.03 0.05 0.06 0.06 0.07 0.08 0.08 0.08 0.08 0.08 0.10 0.12 0.14 0.15 0.17 0.20 0.23 0.24 0.23 0.22 0.20 0.22 0.24 0.19 0.15 0.10 0.07 0.08 0.06 0.05 0.04 0.03 0.03 0.03 0.03 0.02 0.05 0.08 0.04 0.03
0.00 0.01 0.02 0.02 0.03 0.03 0.03 0.03 0.05 0.05 0.05 0.06 0.06 0.09 0.11 0.14 0.19 0.24 0.25 0.26 0.26 0.23 0.22 0.23 0.24 0.23 0.20 0.17 0.13 0.08 0.06 0.05 0.04 0.03 0.02 0.01 0.00 0.00 0.01 0.04 0.06 0.05 0.06
0.00 0.00 0.00 0.01 0.01 0.01 0.01 0.02 0.03 0.03 0.03 0.03 0.03 0.05 0.07 0.10 0.15 0.19 0.23 0.25 0.26 0.26 0.26 0.26 0.27 0.23 0.17 0.17 0.13 0.08 0.07 0.05 0.05 0.04 0.02 0.01 0.00 0.00 0.00 0.01 0.03 0.04 0.05
0.00 0.00 0.00 0.00 0.01 0.01 0.01 0.02 0.02 0.02 0.03 0.03 0.04 0.05 0.04 0.05 0.09 0.12 0.14 0.15 0.17 0.19 0.21 0.22 0.21 0.19 0.16 0.14 0.12 0.09 0.07 0.06 0.04 0.03 0.01 0.00 0.00 0.00 0.00 0.00 0.01 0.01 0.01
0.00 0.00 0.00 0.00 0.00 0.00 0.01 0.01 0.01 0.02 0.02 0.02 0.03 0.04 0.04 0.05 0.06 0.08 0.10 0.12 0.13 0.14 0.18 0.17 0.19 0.19 0.16 0.13 0.13 0.09 0.04 0.06 0.06 0.05 0.02 0.00 0.00 0.00 0.00 0.00 0.00 0.00 0.00
0.00 0.00 0.00 0.00 0.00 0.01 0.01 0.02 0.01 0.01 0.01 0.01 0.02 0.03 0.04 0.04 0.05 0.06 0.08 0.10 0.12 0.13 0.15 0.16 0.19 0.19 0.17 0.14 0.14 0.13 0.09 0.07 0.04 0.05 0.04 0.02 0.01 0.00 0.00 0.00 0.00 0.00 0.00
0.00 0.00 0.00 0.00 0.02 0.03 0.03 0.02 0.02 0.02 0.02 0.01 0.01 0.01 0.02 0.02 0.02 0.03 0.04 0.06 0.08 0.11 0.12 0.13 0.15 0.17 0.18 0.17 0.16 0.16 0.15 0.12 0.07 0.05 0.05 0.04 0.03 0.00 0.00 0.00 0.00 0.00 0.00
MSLP
1006.53 1006.68 1007.01 1007.53 1008.18 1008.87 1009.52 1010.05 1010.43 1010.69 1010.88 1011.06 1011.30 1011.62 1012.02 1012.46 1012.89 1013.26 1013.53 1013.71 1013.81 1013.89 1013.96 1014.07 1014.21 1014.39 1014.56 1014.70 1014.80 1014.86 1014.88 1014.90 1014.93 1015.02 1015.15 1015.32 1015.51 1015.70 1015.86 1016.01 1016.13 1016.25 1016.38
1006.37 1006.64 1007.08 1007.70 1008.41 1009.13 1009.76 1010.25 1010.59 1010.80 1010.95 1011.12 1011.37 1011.72 1012.15 1012.63 1013.08 1013.45 1013.72 1013.87 1013.95 1014.00 1014.06 1014.16 1014.30 1014.47 1014.64 1014.78 1014.87 1014.92 1014.93 1014.94 1014.98 1015.07 1015.23 1015.44 1015.66 1015.89 1016.09 1016.26 1016.40 1016.53 1016.67
1006.16 1006.54 1007.11 1007.84 1008.63 1009.39 1010.03 1010.50 1010.81 1010.98 1011.11 1011.26 1011.51 1011.86 1012.29 1012.76 1013.19 1013.53 1013.76 1013.89 1013.95 1013.99 1014.05 1014.17 1014.34 1014.54 1014.73 1014.88 1014.96 1014.98 1014.98 1014.97 1015.01 1015.11 1015.29 1015.52 1015.78 1016.04 1016.28 1016.47 1016.64 1016.78 1016.93
1005.94 1006.45 1007.14 1007.97 1008.84 1009.65 1010.31 1010.78 1011.06 1011.22 1011.33 1011.47 1011.71 1012.04 1012.45 1012.87 1013.25 1013.54 1013.72 1013.81 1013.86 1013.91 1014.01 1014.17 1014.39 1014.64 1014.86 1015.02 1015.10 1015.10 1015.07 1015.04 1015.06 1015.16 1015.35 1015.60 1015.89 1016.18 1016.44 1016.66 1016.85 1017.01 1017.17
1005.78 1006.39 1007.19 1008.12 1009.05 1009.90 1010.57 1011.04 1011.32 1011.46 1011.57 1011.71 1011.93 1012.24 1012.61 1012.98 1013.30 1013.52 1013.65 1013.70 1013.74 1013.82 1013.96 1014.19 1014.48 1014.79 1015.05 1015.22 1015.30 1015.28 1015.21 1015.15 1015.14 1015.23 1015.41 1015.67 1015.98 1016.30 1016.58 1016.82 1017.02 1017.20 1017.37
1005.70 1006.39 1007.28 1008.26 1009.25 1010.11 1010.79 1011.24 1011.51 1011.65 1011.76 1011.90 1012.12 1012.42 1012.76 1013.09 1013.35 1013.51 1013.58 1013.61 1013.65 1013.75 1013.94 1014.24 1014.60 1014.96 1015.27 1015.46 1015.52 1015.48 1015.38 1015.27 1015.23 1015.29 1015.46 1015.72 1016.04 1016.36 1016.66 1016.92 1017.14 1017.33 1017.52
1005.69 1006.44 1007.38 1008.40 1009.40 1010.26 1010.91 1011.34 1011.59 1011.73 1011.84 1012.00 1012.23 1012.54 1012.86 1013.16 1013.37 1013.49 1013.53 1013.53 1013.57 1013.69 1013.94 1014.29 1014.70 1015.12 1015.45 1015.65 1015.71 1015.64 1015.49 1015.35 1015.26 1015.29 1015.44 1015.70 1016.02 1016.35 1016.66 1016.93 1017.16 1017.37 1017.57
1005.70 1006.49 1007.45 1008.49 1009.47 1010.30 1010.91 1011.31 1011.53 1011.65 1011.77 1011.95 1012.21 1012.53 1012.87 1013.15 1013.35 1013.44 1013.46 1013.44 1013.48 1013.62 1013.88 1014.27 1014.73 1015.17 1015.52 1015.72 1015.77 1015.67 1015.49 1015.30 1015.18 1015.18 1015.31 1015.55 1015.87 1016.22 1016.54 1016.83 1017.08 1017.30 1017.53
1005.70 1006.51 1007.48 1008.50 1009.45 1010.23 1010.78 1011.12 1011.30 1011.41 1011.54 1011.74 1012.03 1012.38 1012.74 1013.04 1013.24 1013.32 1013.32 1013.29 1013.32 1013.46 1013.73 1014.13 1014.59 1015.04 1015.40 1015.59 1015.62 1015.50 1015.29 1015.07 1014.92 1014.90 1015.01 1015.25 1015.58 1015.94 1016.29 1016.60 1016.88 1017.13 1017.38
1005.64 1006.46 1007.43 1008.43 1009.34 1010.05 1010.54 1010.81 1010.95 1011.04 1011.17 1011.39 1011.71 1012.10 1012.49 1012.81 1013.02 1013.10 1013.09 1013.05 1013.06 1013.18 1013.44 1013.82 1014.27 1014.71 1015.05 1015.24 1015.25 1015.11 1014.89 1014.65 1014.49 1014.45 1014.56 1014.80 1015.13 1015.52 1015.90 1016.25 1016.56 1016.85 1017.14
1005.55 1006.37 1007.33 1008.30 1009.15 1009.80 1010.22 1010.44 1010.53 1010.59 1010.72 1010.95 1011.29 1011.71 1012.13 1012.47 1012.69 1012.78 1012.76 1012.71 1012.70 1012.79 1013.01 1013.36 1013.78 1014.19 1014.51 1014.68 1014.69 1014.55 1014.32 1014.09 1013.92 1013.87 1013.98 1014.23 1014.58 1014.99 1015.41 1015.81 1016.17 1016.51 1016.84
1005.47 1006.29 1007.22 1008.15 1008.95 1009.54 1009.90 1010.06 1010.11 1010.15 1010.26 1010.50 1010.85 1011.28 1011.70 1012.06 1012.29 1012.38 1012.36 1012.29 1012.26 1012.31 1012.49 1012.79 1013.17 1013.54 1013.84 1014.00 1014.01 1013.88 1013.67 1013.44 1013.28 1013.24 1013.35 1013.61 1013.98 1014.42 1014.87 1015.32 1015.74 1016.12 1016.50
1005.49 1006.28 1007.17 1008.05 1008.79 1009.32 1009.63 1009.75 1009.78 1009.79 1009.89 1010.10 1010.45 1010.86 1011.28 1011.64 1011.87 1011.96 1011.93 1011.85 1011.79 1011.81 1011.95 1012.20 1012.53 1012.86 1013.14 1013.29 1013.31 1013.20 1013.01 1012.81 1012.66 1012.63 1012.75 1013.01 1013.39 1013.85 1014.34 1014.83 1015.29 1015.73 1016.14
1005.70 1006.42 1007.25 1008.06 1008.73 1009.21 1009.47 1009.57 1009.57 1009.57 1009.64 1009.83 1010.14 1010.53 1010.92 1011.25 1011.47 1011.56 1011.53 1011.45 1011.37 1011.37 1011.46 1011.67 1011.94 1012.24 1012.48 1012.63 1012.66 1012.58 1012.42 1012.25 1012.12 1012.11 1012.22 1012.48 1012.86 1013.32 1013.83 1014.35 1014.85 1015.33 1015.77
1006.14 1006.78 1007.51 1008.22 1008.81 1009.23 1009.46 1009.54 1009.52 1009.51 1009.55 1009.71 1009.97 1010.30 1010.64 1010.94 1011.14 1011.22 1011.20 1011.12 1011.05 1011.03 1011.09 1011.25 1011.48 1011.72 1011.94 1012.08 1012.12 1012.06 1011.93 1011.79 1011.69 1011.68 1011.80 1012.04 1012.41 1012.86 1013.37 1013.90 1014.42 1014.91 1015.38
1006.84 1007.35 1007.94 1008.54 1009.03 1009.39 1009.59 1009.65 1009.64 1009.61 1009.63 1009.73 1009.93 1010.18 1010.46 1010.71 1010.88 1010.96 1010.95 1010.90 1010.84 1010.81 1010.86 1010.97 1011.15 1011.34 1011.52 1011.64 1011.67 1011.63 1011.54 1011.43 1011.35 1011.35 1011.45 1011.67 1012.01 1012.43 1012.92 1013.44 1013.96 1014.46 1014.93
1007.72 1008.08 1008.52 1008.97 1009.36 1009.66 1009.82 1009.88 1009.87 1009.83 1009.82 1009.87 1009.98 1010.16 1010.35 1010.54 1010.68 1010.76 1010.78 1010.76 1010.72 1010.71 1010.74 1010.81 1010.93 1011.07 1011.19 1011.27 1011.29 1011.26 1011.18 1011.09 1011.03 1011.04 1011.13 1011.32 1011.62 1012.01 1012.46 1012.95 1013.45 1013.94 1014.40
1008.68 1008.88 1009.15 1009.46 1009.74 1009.97 1010.12 1010.18 1010.17 1010.13 1010.08 1010.07 1010.10 1010.17 1010.29 1010.41 1010.52 1010.60 1010.65 1010.67 1010.67 1010.67 1010.69 1010.73 1010.79 1010.85 1010.90 1010.93 1010.92 1010.87 1010.81 1010.74 1010.69 1010.70 1010.78 1010.94 1011.20 1011.53 1011.94 1012.39 1012.86 1013.33 1013.78
1009.58 1009.63 1009.75 1009.92 1010.11 1010.28 1010.41 1010.48 1010.48 1010.43 1010.35 1010.27 1010.22 1010.20 1010.22 1010.28 1010.36 1010.45 1010.53 1010.60 1010.64 1010.67 1010.68 1010.68 1010.67 1010.65 1010.62 1010.58 1010.52 1010.45 1010.39 1010.33 1010.29 1010.30 1010.37 1010.50 1010.71 1010.99 1011.34 1011.75 1012.19 1012.64 1013.08
1010.31 1010.23 1010.22 1010.28 1010.39 1010.53 1010.66 1010.74 1010.76 1010.71 1010.60 1010.46 1010.32 1010.21 1010.14 1010.13 1010.19 1010.28 1010.40 1010.52 1010.61 1010.66 1010.67 1010.64 1010.56 1010.46 1010.34 1010.22 1010.11 1010.01 1009.93 1009.87 1009.84 1009.85 1009.90 1010.00 1010.17 1010.40 1010.69 1011.05 1011.46 1011.89 1012.33
1010.76 1010.61 1010.51 1010.49 1010.56 1010.68 1010.82 1010.93 1010.97 1010.92 1010.80 1010.60 1010.39 1010.18 1010.04 1009.98 1010.00 1010.10 1010.25 1010.42 1010.56 1010.65 1010.66 1010.60 1010.47 1010.30 1010.10 1009.90 1009.73 1009.59 1009.49 1009.43 1009.40 1009.40 1009.43 1009.49 1009.61 1009.78 1010.03 1010.34 1010.72 1011.14 1011.59
1010.92 1010.73 1010.59 1010.54 1010.59 1010.71 1010.88 1011.02 1011.09 1011.07 1010.93 1010.69 1010.42 1010.14 1009.93 1009.81 1009.81 1009.92 1010.10 1010.32 1010.51 1010.63 1010.66 1010.59 1010.43 1010.20 1009.94 1009.68 1009.46 1009.29 1009.17 1009.09 1009.05 1009.03 1009.03 1009.05 1009.12 1009.23 1009.41 1009.68 1010.03 1010.45 1010.91
1010.81 1010.62 1010.47 1010.42 1010.48 1010.63 1010.83 1011.02 1011.13 1011.13 1010.99 1010.74 1010.42 1010.09 1009.83 1009.67 1009.65 1009.75 1009.97 1010.22 1010.46 1010.63 1010.69 1010.63 1010.45 1010.20 1009.91 1009.62 1009.37 1009.17 1009.03 1008.94 1008.88 1008.83 1008.80 1008.77 1008.77 1008.81 1008.93 1009.15 1009.46 1009.87 1010.35
1010.49 1010.33 1010.21 1010.18 1010.26 1010.45 1010.69 1010.92 1011.07 1011.10 1010.98 1010.73 1010.39 1010.03 1009.73 1009.54 1009.50 1009.61 1009.84 1010.12 1010.41 1010.62 1010.72 1010.70 1010.55 1010.31 1010.02 1009.73 1009.47 1009.28 1009.13 1009.03 1008.95 1008.87 1008.79 1008.70 1008.63 1008.60 1008.65 1008.80 1009.08 1009.47 1009.96
1010.07 1009.95 1009.87 1009.87 1009.98 1010.19 1010.47 1010.74 1010.94 1011.00 1010.91 1010.67 1010.33 1009.96 1009.64 1009.42 1009.37 1009.47 1009.70 1010.01 1010.33 1010.59 1010.74 1010.77 1010.67 1010.47 1010.22 1009.97 1009.75 1009.57 1009.44 1009.34 1009.25 1009.15 1009.02 1008.87 1008.72 1008.62 1008.59 1008.68 1008.90 1009.27 1009.75
1009.64 1009.57 1009.52 1009.54 1009.67 1009.90 1010.20 1010.50 1010.72 1010.82 1010.76 1010.54 1010.21 1009.85 1009.52 1009.29 1009.21 1009.30 1009.53 1009.84 1010.18 1010.48 1010.68 1010.77 1010.74 1010.62 1010.45 1010.26 1010.10 1009.98 1009.89 1009.81 1009.73 1009.61 1009.44 1009.24 1009.03 1008.85 1008.75 1008.76 1008.93 1009.25 1009.71
Thickness
5861 5854 5845 5840 5835 5830 5826 5822 5818 5814 5810 5806 5802 5799 5796 5793 5790 5787 5785 5782 5780 5777 5775 5773 5770 5768 5766 5764 5762 5761 5760 5759 5758 5757 5755 5753 5752 5751 5750 5750 5750 5748 5747
5862 5852 5844 5839 5834 5830 5825 5821 5817 5813 5809 5805 5801 5798 5794 5791 5788 5786 5783 5781 5779 5776 5774 5772 5769 5767 5765 5763 5761 5760 5758 5757 5757 5756 5754 5752 5751 5750 5750 5750 5750 5747 5745
5860 5850 5842 5837 5832 5828 5824 5819 5815 5811 5807 5803 5800 5796 5793 5790 5787 5784 5782 5780 5777 5775 5773 5771 5768 5766 5764 5762 5760 5759 5757 5756 5756 5755 5754 5753 5750 5749 5748 5748 5747 5746 5744
5858 5848 5842 5835 5830 5826 5821 5817 5813 5809 5806 5802 5798 5795 5792 5789 5786 5783 5780 5778 5776 5774 5772 5769 5767 5765 5763 5761 5759 5758 5757 5756 5755 5755 5755 5754 5751 5748 5747 5746 5745 5744 5743
5857 5848 5839 5833 5828 5823 5819 5815 5811 5807 5804 5800 5797 5794 5791 5788 5784 5782 5779 5776 5774 5772 5770 5768 5766 5764 5762 5760 5758 5757 5756 5756 5755 5755 5756 5754 5751 5747 5746 5745 5744 5743 5742
5854 5846 5836 5830 5825 5821 5817 5813 5809 5805 5802 5798 5795 5792 5789 5786 5783 5781 5778 5775 5772 5770 5768 5766 5764 5762 5760 5759 5757 5756 5755 5755 5755 5756 5757 5755 5750 5747 5745 5743 5742 5742 5741
5853 5844 5833 5828 5823 5818 5814 5810 5806 5803 5799 5796 5793 5790 5787 5784 5782 5779 5776 5774 5771 5769 5766 5764 5762 5760 5759 5757 5755 5754 5754 5754 5754 5758 5758 5755 5751 5747 5744 5742 5741 5740 5740
5854 5843 5831 5826 5821 5816 5812 5808 5804 5800 5797 5794 5791 5788 5785 5782 5779 5777 5774 5771 5769 5767 5765 5763 5761 5759 5757 5755 5754 5753 5752 5752 5755 5757 5758 5755 5751 5747 5744 5742 5740 5739 5738
5856 5841 5830 5824 5818 5814 5809 5805 5801 5798 5794 5791 5788 5785 5782 5779 5776 5774 5772 5769 5767 5764 5762 5760 5759 5757 5755 5753 5752 5751 5750 5750 5751 5755 5758 5755 5752 5748 5745 5742 5740 5739 5738
5853 5841 5832 5825 5818 5812 5807 5802 5799 5795 5791 5788 5784 5782 5779 5776 5773 5771 5769 5767 5765 5762 5760 5758 5757 5755 5753 5752 5750 5749 5748 5748 5750 5754 5757 5755 5753 5750 5746 5743 5741 5739 5738
5848 5840 5834 5827 5818 5813 5807 5802 5796 5792 5788 5784 5781 5778 5775 5773 5772 5769 5768 5766 5763 5760 5759 5757 5755 5754 5752 5750 5749 5748 5746 5747 5749 5753 5756 5756 5753 5751 5747 5744 5741 5739 5738
5839 5837 5835 5828 5819 5814 5810 5802 5795 5791 5787 5783 5781 5778 5774 5772 5772 5772 5770 5766 5762 5759 5757 5755 5754 5752 5751 5750 5750 5748 5746 5746 5749 5753 5756 5756 5753 5751 5748 5745 5742 5740 5738
5836 5834 5831 5826 5818 5813 5809 5801 5798 5794 5790 5784 5781 5778 5775 5772 5771 5770 5769 5764 5760 5756 5755 5754 5752 5751 5751 5751 5752 5750 5748 5749 5750 5753 5757 5756 5754 5752 5749 5746 5743 5741 5739
5828 5825 5824 5821 5814 5808 5804 5800 5797 5793 5789 5785 5781 5777 5774 5770 5767 5766 5764 5762 5759 5756 5755 5754 5752 5751 5750 5751 5751 5750 5749 5749 5752 5754 5756 5754 5751 5750 5749 5747 5744 5742 5740
5819 5818 5817 5812 5806 5801 5795 5791 5790 5787 5785 5782 5778 5773 5769 5766 5762 5760 5759 5756 5755 5754 5753 5750 5750 5749 5748 5748 5749 5749 5749 5750 5752 5753 5753 5751 5747 5747 5747 5746 5744 5742 5741
5809 5807 5806 5802 5798 5792 5786 5781 5779 5779 5777 5775 5771 5768 5763 5760 5757 5754 5752 5750 5749 5748 5747 5747 5746 5743 5743 5743 5744 5746 5747 5747 5749 5751 5750 5749 5747 5746 5745 5745 5744 5742 5741
5800 5798 5795 5793 5789 5784 5779 5775 5772 5771 5768 5766 5763 5760 5755 5752 5750 5748 5746 5744 5743 5742 5740 5740 5739 5739 5737 5739 5740 5742 5744 5746 5747 5748 5749 5748 5746 5745 5745 5745 5744 5743 5742
5791 5788 5786 5785 5780 5775 5771 5766 5764 5762 5759 5756 5754 5750 5747 5745 5743 5740 5740 5739 5739 5737 5736 5734 5733 5731 5731 5733 5735 5738 5742 5743 5745 5746 5747 5746 5746 5746 5746 5745 5744 5743 5742
5780 5778 5775 5773 5769 5766 5763 5759 5756 5753 5750 5747 5745 5742 5740 5737 5735 5734 5734 5734 5732 5731 5730 5729 5728 5726 5725 5726 5729 5734 5738 5741 5743 5745 5746 5747 5747 5747 5748 5747 5746 5744 5743
5772 5769 5766 5762 5759 5756 5753 5750 5747 5745 5743 5740 5737 5733 5731 5729 5728 5727 5727 5727 5725 5724 5723 5722 5721 5721 5720 5722 5725 5730 5734 5738 5741 5742 5744 5747 5748 5749 5749 5750 5747 5745 5744
5762 5759 5756 5752 5749 5746 5742 5738 5735 5733 5732 5731 5729 5726 5723 5721 5719 5718 5718 5718 5717 5716 5717 5716 5716 5715 5714 5717 5715 5719 5727 5734 5737 5740 5743 5745 5748 5750 5751 5751 5750 5747 5745
5753 5751 5748 5744 5741 5738 5733 5730 5728 5725 5724 5723 5721 5718 5716 5714 5712 5712 5710 5709 5709 5708 5711 5711 5710 5709 5710 5713 5710 5709 5711 5719 5729 5738 5740 5742 5745 5749 5751 5751 5749 5748 5747
5747 5744 5742 5736 5732 5729 5725 5723 5720 5717 5715 5713 5711 5710 5709 5707 5705 5703 5702 5702 5701 5701 5702 5703 5704 5703 5702 5706 5709 5707 5705 5707 5719 5730 5736 5739 5742 5744 5747 5749 5749 5748 5747
5742 5740 5736 5731 5726 5721 5717 5712 5707 5703 5700 5701 5700 5701 5700 5698 5697 5696 5695 5694 5693 5693 5693 5695 5697 5697 5697 5697 5702 5707 5709 5711 5709 5712 5724 5734 5738 5739 5742 5745 5747 5747 5747
5739 5735 5731 5726 5720 5715 5709 5703 5698 5694 5692 5691 5691 5689 5689 5689 5688 5688 5687 5686 5685 5685 5685 5685 5687 5688 5690 5691 5694 5698 5701 5706 5709 5706 5707 5719 5726 5732 5736 5739 5741 5744 5744
5735 5730 5725 5719 5713 5708 5701 5696 5690 5685 5682 5679 5677 5676 5677 5679 5679 5679 5677 5677 5676 5675 5675 5675 5676 5679 5681 5683 5687 5690 5692 5695 5699 5703 5703 5708 5713 5722 5730 5733 5736 5738 5740